Weather History for Monett, MO

Change the Weather History Date:

Tuesday, March 26, 2013

  Actual Average (KJLN) Record (KJLN)
Temperature  
Mean Temperature 30 °F 52 °F  
Max Temperature 39 °F 63 °F 85 °F (1956)
Min Temperature 21 °F 41 °F 10 °F (1955)
Degree Days  
Heating Degree Days 35 14  
Month to date heating degree days 445  
Since 1 July heating degree days 3699  
Cooling Degree Days 0 0  
Month to date cooling degree days 0  
Year to date cooling degree days 1  
Moisture  
Dew Point 23 °F    
Average Humidity 75    
Maximum Humidity 100    
Minimum Humidity 52    
Precipitation  
Precipitation 0.00 in 0.11 in 1.07 in (2011)
Month to date precipitation 2.79  
Year to date precipitation 7.14  
Sea Level Pressure  
Sea Level Pressure 30.33 in    
Wind  
Wind Speed 5 mph (WNW)    
Max Wind Speed 9 mph    
Max Gust Speed -    
Visibility 10 miles    
Events      
T = Trace of Precipitation, MM = Missing Value Source: NWS Daily Summary

Daily Weather History Graph

Daily Weather History Graph

Search for Another Location

Airport:

Trip Planner

Search our weather history database for the weather conditions in past years. The results will help you decide how hot, cold, wet, or windy it might be!

Date:

Astronomy

Mar. 26, 2013 Rise Set
Actual Time 7:10 AM CDT 7:33 PM CDT
Civil Twilight 6:44 AM CDT 7:59 PM CDT
Nautical Twilight 6:13 AM CDT 8:29 PM CDT
Astronomical Twilight 5:42 AM CDT 9:01 PM CDT
Moon 7:10 PM CDT (3/26) 6:26 AM CDT (3/26)
Length of Visible Light 13h 15m
Length of Day
12h 23m
Waxing Gibbous, 99% of the Moon is Illuminated
Mar 26
Waxing Gibbous
Mar 27
Full
Apr 2
Last Quarter
Apr 10
New
Apr 18
First Quarter

Hourly Weather History & Observations

Time (CDT) Temp. Windchill Dew Point Humidity Pressure Visibility Wind Dir Wind Speed Gust Speed Precip Events Conditions
12:15 AM 28.4 °F 22.2 °F 23.0 °F 80% 30.30 in 10.0 mi NW 5.8 mph - N/A   Clear
12:35 AM 26.6 °F 20.0 °F 23.0 °F 86% 30.30 in 10.0 mi WNW 5.8 mph - N/A   Clear
12:55 AM 26.6 °F 20.0 °F 23.0 °F 86% 30.30 in 10.0 mi WNW 5.8 mph - N/A   Clear
1:15 AM 26.6 °F 19.1 °F 23.0 °F 86% 30.30 in 10.0 mi NW 6.9 mph - N/A   Clear
1:35 AM 26.6 °F 19.1 °F 23.0 °F 86% 30.31 in 10.0 mi NW 6.9 mph - N/A   Clear
1:55 AM 26.6 °F 21.2 °F 23.0 °F 86% 30.31 in 10.0 mi NW 4.6 mph - N/A   Clear
2:15 AM 26.6 °F 19.1 °F 23.0 °F 86% 30.31 in 10.0 mi NW 6.9 mph - N/A   Clear
2:35 AM 26.6 °F 21.2 °F 23.0 °F 86% 30.31 in 10.0 mi NW 4.6 mph - N/A   Clear
2:55 AM 24.8 °F 19.1 °F 23.0 °F 93% 30.31 in 10.0 mi NW 4.6 mph - N/A   Clear
3:15 AM 24.8 °F 20.5 °F 23.0 °F 93% 30.31 in 10.0 mi WNW 3.5 mph - N/A   Clear
3:35 AM 23.0 °F 17.0 °F 23.0 °F 100% 30.31 in 10.0 mi WNW 4.6 mph - N/A   Clear
3:55 AM 23.0 °F 17.0 °F 23.0 °F 100% 30.30 in 10.0 mi NW 4.6 mph - N/A   Clear
4:15 AM 24.8 °F 16.9 °F 23.0 °F 93% 30.30 in 10.0 mi NW 6.9 mph - N/A   Clear
4:35 AM 24.8 °F 19.1 °F 23.0 °F 93% 30.30 in 10.0 mi NW 4.6 mph - N/A   Clear
4:55 AM 23.0 °F 17.0 °F 21.2 °F 93% 30.31 in 10.0 mi WNW 4.6 mph - N/A   Clear
5:15 AM 23.0 °F 17.0 °F 21.2 °F 93% 30.31 in 10.0 mi WNW 4.6 mph - N/A   Clear
5:35 AM 23.0 °F 18.4 °F 21.2 °F 93% 30.31 in 10.0 mi WNW 3.5 mph - N/A   Clear
5:55 AM 23.0 °F 17.0 °F 21.2 °F 93% 30.31 in 10.0 mi WNW 4.6 mph - N/A   Clear
6:15 AM 21.2 °F 13.6 °F 21.2 °F 100% 30.32 in 10.0 mi West 5.8 mph - N/A   Clear
6:35 AM 23.0 °F 15.8 °F 21.2 °F 93% 30.32 in 10.0 mi West 5.8 mph - N/A   Clear
6:55 AM 21.2 °F 13.6 °F 21.2 °F 100% 30.33 in 10.0 mi WNW 5.8 mph - N/A   Clear
7:15 AM 21.2 °F 14.9 °F 21.2 °F 100% 30.34 in 10.0 mi West 4.6 mph - N/A   Clear
7:35 AM 21.2 °F 13.6 °F 21.2 °F 100% 30.35 in 10.0 mi West 5.8 mph - N/A   Clear
7:55 AM 23.0 °F 18.4 °F 21.2 °F 93% 30.36 in 10.0 mi WNW 3.5 mph - N/A   Clear
8:15 AM 23.0 °F 17.0 °F 23.0 °F 100% 30.37 in 10.0 mi WNW 4.6 mph - N/A   Clear
8:35 AM 24.8 °F 16.9 °F 23.0 °F 93% 30.38 in 10.0 mi WNW 6.9 mph - N/A   Clear
8:55 AM 26.6 °F 20.0 °F 23.0 °F 86% 30.39 in 10.0 mi NW 5.8 mph - N/A   Clear
9:15 AM 28.4 °F 20.4 °F 23.0 °F 80% 30.39 in 10.0 mi NW 8.1 mph - N/A   Clear
9:35 AM 28.4 °F 20.4 °F 23.0 °F 80% 30.39 in 10.0 mi NW 8.1 mph - N/A   Clear
9:55 AM 28.4 °F 19.7 °F 23.0 °F 80% 30.39 in 10.0 mi NNW 9.2 mph - N/A   Scattered Clouds
10:15 AM 30.2 °F 21.9 °F 23.0 °F 75% 30.39 in 10.0 mi NNW 9.2 mph - N/A   Scattered Clouds
10:35 AM 30.2 °F 22.6 °F 23.0 °F 75% 30.40 in 10.0 mi NW 8.1 mph - N/A   Scattered Clouds
10:55 AM 30.2 °F 24.3 °F 23.0 °F 75% 30.40 in 10.0 mi NW 5.8 mph - N/A   Mostly Cloudy
11:15 AM 30.2 °F 22.6 °F 21.2 °F 69% 30.40 in 10.0 mi NNW 8.1 mph - N/A   Mostly Cloudy
11:35 AM 32.0 °F 28.7 °F 23.0 °F 69% 30.40 in 10.0 mi WNW 3.5 mph - N/A   Mostly Cloudy
11:55 AM 32.0 °F 24.8 °F 21.2 °F 64% 30.40 in 10.0 mi NNW 8.1 mph - N/A   Overcast
12:15 PM 32.0 °F 25.6 °F 21.2 °F 64% 30.39 in 10.0 mi WNW 6.9 mph - N/A   Overcast
12:35 PM 32.0 °F 26.4 °F 21.2 °F 64% 30.39 in 10.0 mi West 5.8 mph - N/A   Mostly Cloudy
12:55 PM 33.8 °F 29.6 °F 23.0 °F 65% 30.39 in 10.0 mi West 4.6 mph - N/A   Mostly Cloudy
1:15 PM 33.8 °F 28.6 °F 23.0 °F 65% 30.39 in 10.0 mi West 5.8 mph - N/A   Mostly Cloudy
1:55 PM 33.8 °F 28.6 °F 23.0 °F 65% 30.38 in 10.0 mi WNW 5.8 mph - N/A   Overcast
2:15 PM 33.8 °F 29.6 °F 23.0 °F 65% 30.37 in 10.0 mi NW 4.6 mph - N/A   Overcast
2:35 PM 35.6 °F 30.7 °F 23.0 °F 60% 30.36 in 10.0 mi West 5.8 mph - N/A   Mostly Cloudy
2:55 PM 35.6 °F 31.7 °F 23.0 °F 60% 30.35 in 10.0 mi WSW 4.6 mph - N/A   Scattered Clouds
3:15 PM 37.4 °F 34.9 °F 23.0 °F 56% 30.34 in 10.0 mi WSW 3.5 mph - N/A   Scattered Clouds
3:35 PM 37.4 °F - 24.8 °F 60% 30.34 in 10.0 mi Calm Calm - N/A   Scattered Clouds
3:55 PM 37.4 °F 34.9 °F 24.8 °F 60% 30.33 in 10.0 mi West 3.5 mph - N/A   Clear
4:15 PM 37.4 °F 32.1 °F 24.8 °F 60% 30.32 in 10.0 mi NNW 6.9 mph - N/A   Clear
4:35 PM 37.4 °F 32.8 °F 24.8 °F 60% 30.31 in 10.0 mi NW 5.8 mph - N/A   Clear
4:55 PM 37.4 °F - 23.0 °F 56% 30.31 in 10.0 mi Calm Calm - N/A   Clear
5:15 PM 39.2 °F 35.9 °F 24.8 °F 56% 30.30 in 10.0 mi North 4.6 mph - N/A   Clear
5:35 PM 39.2 °F - 24.8 °F 56% 30.30 in 10.0 mi Calm Calm - N/A   Clear
5:55 PM 39.2 °F - 23.0 °F 52% 30.30 in 10.0 mi Calm Calm - N/A   Clear
6:15 PM 39.2 °F - 24.8 °F 56% 30.30 in 10.0 mi Calm Calm - N/A   Clear
6:35 PM 39.2 °F - 23.0 °F 52% 30.30 in 10.0 mi Calm Calm - N/A   Clear
6:55 PM 39.2 °F - 23.0 °F 52% 30.30 in 10.0 mi Calm Calm - N/A   Clear
7:15 PM 39.2 °F - 23.0 °F 52% 30.29 in 10.0 mi Calm Calm - N/A   Clear
7:35 PM 37.4 °F - 23.0 °F 56% 30.29 in 10.0 mi Calm Calm - N/A   Clear
7:55 PM 35.6 °F - 23.0 °F 60% 30.29 in 10.0 mi Calm Calm - N/A   Clear
8:15 PM 35.6 °F 31.7 °F 23.0 °F 60% 30.29 in 10.0 mi East 4.6 mph - N/A   Clear
8:35 PM 35.6 °F 31.7 °F 23.0 °F 60% 30.29 in 10.0 mi East 4.6 mph - N/A   Clear
8:55 PM 33.8 °F - 23.0 °F 65% 30.29 in 10.0 mi Calm Calm - N/A   Clear
9:15 PM 32.0 °F 28.7 °F 23.0 °F 69% 30.29 in 10.0 mi SE 3.5 mph - N/A   Clear
9:35 PM 32.0 °F - 23.0 °F 69% 30.30 in 10.0 mi Calm Calm - N/A   Clear
9:55 PM 32.0 °F - 24.8 °F 75% 30.31 in 10.0 mi Calm Calm - N/A   Clear
10:15 PM 32.0 °F - 23.0 °F 69% 30.31 in 10.0 mi Calm Calm - N/A   Clear
10:35 PM 32.0 °F - 23.0 °F 69% 30.31 in 10.0 mi Calm Calm - N/A   Clear
10:55 PM 32.0 °F 27.5 °F 23.0 °F 69% 30.30 in 10.0 mi SE 4.6 mph - N/A   Clear
11:15 PM 32.0 °F 26.4 °F 23.0 °F 69% 30.30 in 10.0 mi SE 5.8 mph - N/A   Clear
11:35 PM 32.0 °F 27.5 °F 23.0 °F 69% 30.31 in 10.0 mi SSE 4.6 mph - N/A   Clear
11:55 PM 32.0 °F 27.5 °F 23.0 °F 69% 30.30 in 10.0 mi SE 4.6 mph - N/A   Clear